Regional Weather Roundup
Issued by NWS

Home | Current Version | Previous Version | Graphics & Text | Print | Product List | Glossary Off
Versions: 1 2 3 4 5 6 7 8 9 10 11 12 13 14 15 16 17 18 19 20 21 22 23 24 25 26 27 28 29 30 31 32 33 34 35 36 37 38 39 40 41 42 43 44 45 46 47 48 49 50

000
ASUS43 KMKX 230300
RWRWI

WISCONSIN REGIONAL WEATHER ROUNDUP
NATIONAL WEATHER SERVICE MILWAUKEE/SULLIVAN WI
1000 PM CDT SAT APR 22 2017

NOTE: "FAIR" INDICATES FEW OR NO CLOUDS BELOW 12,000 FEET WITH NO
SIGNIFICANT WEATHER AND/OR OBSTRUCTIONS TO VISIBILITY.

WIZ001-002-006>008-014>016-023>028-230400-
NORTHWEST WISCONSIN

CITY           SKY/WX    TMP DP  RH WIND       PRES   REMARKS
SUPERIOR ARPT  MOCLDY    59  40  50 N5        30.04R
ASHLAND        MOCLDY    55  39  54 NE13G29   30.06R
HAYWARD        CLEAR     48  33  56 S3        30.07R
SIREN          CLEAR     56  32  39 CALM      30.08S
CUMBERLAND     CLEAR     52  34  50 SW5       30.09R
RICE LAKE      CLEAR     55  33  43 SW3       30.10S
CHETEK         CLEAR     53  35  50 W5        30.09S
LADYSMITH      CLEAR     55  33  43 SW6       30.09S
EAU CLAIRE     NOT AVBL
MENOMONIE      CLEAR     56  33  42 SW6       30.10S
NEW RICHMOND   CLEAR     53  34  49 CALM      30.10S
OSCEOLA        CLEAR     56  34  43 SW6       30.12S
$$

WIZ003>005-009-010-017-018-230400-
NORTH CENTRAL WISCONSIN

CITY           SKY/WX    TMP DP  RH WIND       PRES   REMARKS
MANITOWISH WTR PTCLDY    53  31  43 W6        30.05S
ARBOR VITAE    CLEAR     49  35  59 CALM      30.05F
WOODRUFF       CLEAR     49  35  59 CALM      30.05F
RHINELANDER    CLEAR     51  31  46 SW7       30.07S
EAGLE RIVER    CLEAR     46  30  54 SW5       30.05S
LAND O LAKES   CLEAR     54  29  38 W5        30.05S
PHILLIPS       CLEAR     49  34  55 CALM      30.07S
TOMAHAWK       CLEAR     50  31  47 CALM      30.08S
MEDFORD        CLEAR     53  34  48 SW7       30.09S
MERRILL        CLEAR     53  33  47 SW6       30.09S
$$

WIZ029-030-035-036-043>047-230400-
CENTRAL WISCONSIN

CITY           SKY/WX    TMP DP  RH WIND       PRES   REMARKS
WAUSAU         CLEAR     53  32  44 SW7       30.08F
MOSINEE        CLEAR     48  32  53 SW5       30.12S
MARSHFIELD     CLEAR     50  35  56 SW6       30.10F
STEVENS POINT  CLEAR     42  31  63 CALM      30.12F
WAUPACA        CLEAR     49  34  56 CALM      30.12F
WAUTOMA        CLEAR     45  30  55 CALM      30.13S
WISC RAPIDS    CLEAR     45  36  70 SW3       30.12F
CAMP DOUGLAS   NOT AVBL
$$

WIZ011>013-019>022-031-037>040-048>050-230400-
NORTHEAST WISCONSIN

CITY           SKY/WX    TMP DP  RH WIND       PRES   REMARKS
ANTIGO         CLEAR     47  32  55 SW8       30.09F
SHAWANO        CLEAR     56  31  38 CALM      30.09F
OCONTO         CLEAR     55  31  40 SW7       30.09S
STURGEON BAY   CLEAR     49  34  56 S12       30.09F
GREEN BAY      CLEAR     52  37  56 S7        30.11F
MANITOWOC      NOT AVBL
APPLETON       PTCLDY    48  32  53 VRB6      30.11S
CLINTONVILLE   CLEAR     52  32  46 SW6       30.10F
OSHKOSH        CLEAR     51  33  50 S9        30.13S
$$

WIZ032>034-041-042-053>061-230400-
SOUTHWEST WISCONSIN

CITY           SKY/WX    TMP DP  RH WIND       PRES   REMARKS
LA CROSSE      CLEAR     56  37  49 S3        30.13S
SPARTA         CLEAR     43  33  67 CALM      30.15S
VIROQUA        CLEAR     55  24  30 S3        30.15F
BOSCOBEL       CLEAR     47  35  63 CALM      30.16R
PRAIRIE DU CHI CLEAR     50  36  58 CALM      30.16R
PLATTEVILLE    CLEAR     56  24  29 CALM      30.17S
$$

WIZ056-057-062-063-064-067-068-230400-
SOUTH CENTRAL WISCONSIN

CITY           SKY/WX    TMP DP  RH WIND       PRES   REMARKS
REEDSBURG      CLEAR     51  33  49 CALM      30.15R
BARABOO/DELLS  CLEAR     49  28  44 S3        30.14S
LONE ROCK      NOT AVBL
MINERAL POINT  CLEAR     59  19  21 SW5       30.16S
MADISON        CLEAR     48  38  68 S3        30.15S
MIDDLETON      CLEAR     46  35  66 CALM      30.16S
WATERTOWN      CLEAR     46  37  70 CALM      30.15S
MONROE         CLEAR     54  27  35 CALM      30.16S
JANESVILLE     CLEAR     52  30  43 CALM      30.16R
$$

WIZ051-052-058>065-066-070>072-230400-
SOUTHEAST WISCONSIN

CITY           SKY/WX    TMP DP  RH WIND       PRES   REMARKS
MILWAUKEE      CLEAR     49  24  37 CALM      30.16S
WAUKESHA       NOT AVBL
MILWAUKEE/TIMM CLEAR     46  19  34 CALM      30.17S
RACINE         CLEAR     43  28  55 CALM      30.18R
KENOSHA        CLEAR     43  29  57 W3        30.17R
FOND DU LAC    CLEAR     50  36  58 SW5       30.14S
SHEBOYGAN      CLEAR     45  32  60 SW3       30.14F
WEST BEND      CLEAR     45  34  65 CALM      30.16S
JUNEAU         CLEAR     51  32  48 S3        30.15S
$$

LSZ147-162-230400-
LAKE SUPERIOR

STATION/POSITION TIME  TEMP    WIND        PRES    WAVE
                       AIR SEA DIR/SP/G            HT/PER
                 (UTC) (F)     (DEG/KT/KT) (MB)    (FT/S)
DEVILS ISLAND    0200   50      20/ 16/ 17 1018.0R
PORT WING        0200   51      10/ 11     1017.3
SAXON HARBOR     0240   48      30/  9/ 16 1017.9R
$$

LMZ867-665-643>646-230400-
LAKE MICHIGAN

STATION/POSITION TIME  TEMP    WIND        PRES    WAVE
                       AIR SEA DIR/SP/G            HT/PER
                 (UTC) (F)     (DEG/KT/KT) (MB)    (FT/S)
CHAMBERS ISLAND  0240   51     180/  9/ 15 1017.9S
N MID LAKE BUOY  0150   42 37  190/ 12/ 14 1019.7F   1/ 3
NORTHPORT PIER   0240   49     180/  5/ 10 1017.9F
SISTER BAY       0051   51     190/ 12/ 15   N/A
KEWAUNEE LAKESHO 0230   50     220/ 12/ 15 1019.2F
SHEBOYGAN LAKESH 0200   51     210/  8/  8 1020.9S
PORT WASHINGTON  0240   47     290/  2/  3 1022.0S
MILWAUKEE LAKESH 0230   49        CALM       N/A
KENOSHA   LAKESH 0200   50        CALM     1021.3
$$

TC  - TEMPERATURE IN CELSIUS
VSB - VISIBILITY IN STATUTE MILES
WCI - WIND CHILL INDEX
HX  - HEAT INDEX





USA.gov is the U.S. government's official web portal to all federal, state and local government web resources and services.